DW4465 Weather Reports


time (UTC)temp
C
wind
direction
speed
KPH
gust
KPH
rain 1hr
cm
rain 24hr
cm
rain mn
cm
humidity
%
barometer
mb
20260505073044 13 0 0.0 0.0 0.05 0.08 0.00 84 1015.1
20260505071542 13 0 0.0 0.0 0.05 0.08 0.00 84 1015.1
20260505070044 13 0 0.0 3.2 0.08 0.08 0.00 83 1015.1
20260505064537 13 0 0.0 1.6 0.05 0.05 0.05 83 1015.1
20260505063046 14 0 0.0 4.8 0.03 0.03 0.03 82 1015.1
20260505061546 15 148 3.2 8.0 0.03 0.03 0.03 81 1015.1
20260505060042 15 0 1.6 6.4 0.00 0.00 0.00 79 1015.1
20260505054544 15 196 1.6 6.4 0.00 0.00 0.00 79 1015.1
20260505053045 15 168 0.0 4.8 0.00 0.00 0.00 79 1015.2
20260505051537 15 188 0.0 4.8 0.00 0.00 0.00 79 1015.3
20260505041544 15 0 0.0 3.2 0.00 0.00 0.00 78 1015.6
20260505040049 15 186 0.0 6.4 0.00 0.00 0.00 78 1015.4
20260505034544 15 202 1.6 6.4 0.00 0.00 0.00 77 1015.4
20260505033104 15 0 1.6 11.3 0.00 0.00 0.00 76 1015.2
20260505031541 15 0 1.6 8.0 0.00 0.00 0.00 76 1015.1
20260505030038 15 243 3.2 12.9 0.00 0.00 0.00 74 1015.1
20260505024544 16 198 4.8 14.5 0.00 0.00 0.00 73 1015.0
20260505023056 16 240 3.2 11.3 0.00 0.00 0.00 71 1015.2
20260505021542 16 229 3.2 12.9 0.00 0.00 0.00 70 1015.0
20260505020048 17 200 3.2 17.7 0.00 0.00 0.00 69 1014.9
20260505014540 17 219 4.8 16.1 0.00 0.00 0.00 67 1014.9
20260505013037 18 223 3.2 14.5 0.00 0.00 0.00 62 1014.9
20260505011537 18 228 1.6 6.4 0.00 0.00 0.00 63 1014.8
20260505010045 18 306 3.2 11.3 0.00 0.00 0.00 63 1014.9
20260505004547 19 294 1.6 6.4 0.00 0.00 0.00 62 1014.8
20260505003045 18 261 1.6 14.5 0.00 0.00 0.00 62 1014.9
20260505001537 18 311 3.2 12.9 0.00 0.00 0.00 61 1015.1
20260505000037 19 313 3.2 12.9 0.00 0.00 0.00 60 1014.9
20260504234609 20 246 3.2 12.9 0.00 0.00 0.00 59 1014.9
20260504233043 20 13 4.8 11.3 0.00 0.00 0.00 59 1014.7
20260504231550 20 345 4.8 14.5 0.00 0.00 0.00 58 1014.7
20260504230040 20 271 4.8 14.5 0.00 0.00 0.00 57 1014.6
20260504224537 20 252 4.8 14.5 0.00 0.00 0.00 56 1014.9
20260504223044 21 0 3.2 16.1 0.00 0.00 0.00 55 1015.0
20260504221547 20 216 4.8 19.3 0.00 0.00 0.00 56 1015.1
20260504220042 21 252 6.4 17.7 0.00 0.00 0.00 56 1015.2
20260504214541 20 191 4.8 19.3 0.00 0.00 0.00 60 1015.3
20260504213037 20 212 8.0 24.1 0.00 0.00 0.00 58 1015.6
20260504211546 21 275 4.8 16.1 0.00 0.00 0.00 56 1015.5
20260504210053 18 159 11.3 24.1 0.00 0.00 0.00 64 1015.5
20260504204618 19 264 6.4 17.7 0.00 0.00 0.00 64 1015.5
20260504203040 20 192 6.4 19.3 0.00 0.00 0.00 63 1015.6
20260504201538 18 192 8.0 19.3 0.00 0.00 0.00 65 1015.6
20260504200053 20 200 4.8 14.5 0.00 0.00 0.00 60 1015.6
20260504194550 20 145 4.8 19.3 0.00 0.00 0.00 59 1015.9
20260504193045 21 268 3.2 11.3 0.00 0.00 0.00 47 1016.1
20260504191538 21 309 1.6 14.5 0.00 0.00 0.00 48 1016.1
20260504190042 21 350 3.2 14.5 0.00 0.00 0.00 48 1015.9
20260504184546 21 211 3.2 11.3 0.00 0.00 0.00 51 1016.2
20260504183037 20 222 3.2 16.1 0.00 0.00 0.00 52 1016.1
20260504181542 19 335 1.6 14.5 0.00 0.00 0.00 59 1016.1
20260504180042 18 221 1.6 14.5 0.00 0.00 0.00 56 1016.2
20260504174539 20 244 1.6 8.0 0.00 0.00 0.00 54 1016.0
20260504173048 19 222 3.2 11.3 0.00 0.00 0.00 56 1016.0
20260504171544 18 287 3.2 9.7 0.00 0.00 0.00 58 1015.9
20260504081548 15 0 0.0 4.8 0.00 0.00 0.00 73 1015.6